contact:dominique.lefevre@mio.osupytheas.fr, maurice.libes@osupytheas.fr, didier.mallarino@osupytheas.fr
Project:EMSO http://www.emso-fr.org/EMSO-France
Depth: 2436.0 m
Title:EMSO Ligure Ouest : Data MII capteur AQUADOPP
Date,Latitude,Longitude,X_East,Y_North,Z_Up,Amplitude_X,Amplitude_Y,Amplitude_Z,Batterie,SoundSpeed,Heading,Pitch,Roll,Pressure,TIS,Speed,Direction
, degrees North, degrees East, m.s-1, m.s-1,m.s-1, 1, 1, 1, Volt, m.s-1, degree, degree, degree, dbar, degree_C, m.s-1, degree
2023-12-19T00:04:03,42.805,6.029,0.01,-0.002,-0.009,105.0,105.0,103.0,13.3,1505.2,359.1,-0.8,1.8,2471.614,13.29,0.01,101.3
2023-12-19T00:07:03,42.805,6.029,0.008,0.005,-0.012,107.0,107.0,102.0,13.3,1505.2,343.9,-0.7,1.8,2471.593,13.29,0.009,58.0
2023-12-19T00:10:03,42.805,6.029,-0.002,-0.014,-0.026,108.0,105.0,104.0,13.4,1505.2,343.8,-0.8,1.8,2471.591,13.29,0.014,188.1
2023-12-19T00:13:03,42.805,6.029,-0.004,0.02,0.0,106.0,106.0,104.0,13.4,1505.2,355.3,-0.7,1.8,2471.596,13.29,0.02,348.7
2023-12-19T00:16:03,42.805,6.029,-0.003,0.006,-0.013,107.0,105.0,103.0,13.4,1505.2,339.0,-0.8,1.8,2471.621,13.29,0.006,333.4
2023-12-19T00:19:03,42.805,6.029,-0.003,0.01,-0.024,107.0,107.0,103.0,13.4,1505.2,346.1,-0.8,1.8,2471.573,13.29,0.01,343.3
2023-12-19T00:22:03,42.805,6.029,0.014,-0.02,-0.019,107.0,106.0,103.0,13.4,1505.2,347.5,-0.8,1.8,2471.597,13.29,0.024,145.0
2023-12-19T00:25:03,42.805,6.029,0.002,-0.026,-0.055,106.0,106.0,103.0,13.4,1505.2,356.0,-0.8,1.8,2471.577,13.29,0.026,175.6
2023-12-19T00:28:03,42.805,6.029,-0.023,0.004,-0.004,107.0,105.0,104.0,13.4,1505.2,346.3,-0.8,1.8,2471.569,13.29,0.023,279.9
2023-12-19T00:31:03,42.805,6.029,-0.013,0.007,-0.011,106.0,106.0,102.0,13.4,1505.2,344.1,-0.7,1.8,2471.566,13.29,0.014,298.3
2023-12-19T00:34:03,42.805,6.029,-0.009,0.012,-0.011,107.0,106.0,104.0,13.4,1505.2,359.1,-0.7,1.8,2471.578,13.29,0.015,323.1
2023-12-19T00:37:03,42.805,6.029,-0.019,-0.006,0.004,107.0,105.0,104.0,13.3,1505.2,347.3,-0.8,1.8,2471.594,13.29,0.019,252.5
2023-12-19T00:40:03,42.805,6.029,-0.001,-0.001,-0.028,107.0,106.0,103.0,13.3,1505.2,359.2,-0.7,1.8,2471.588,13.29,0.001,225.0
2023-12-19T00:43:03,42.805,6.029,-0.008,0.003,-0.013,105.0,105.0,103.0,13.4,1505.2,337.6,-0.8,1.8,2471.557,13.29,0.008,290.6
2023-12-19T00:46:03,42.805,6.029,0.004,-0.006,-0.031,106.0,105.0,104.0,13.3,1505.2,349.9,-0.7,1.8,2471.572,13.29,0.007,146.3
2023-12-19T00:49:03,42.805,6.029,-0.008,0.012,-0.002,106.0,106.0,105.0,13.3,1505.2,2.4,-0.8,1.8,2471.519,13.29,0.014,326.3
2023-12-19T00:52:03,42.805,6.029,-0.015,0.007,-0.007,107.0,106.0,103.0,13.4,1505.2,338.6,-0.8,1.8,2471.586,13.29,0.016,295.0
2023-12-19T00:55:03,42.805,6.029,0.012,-0.014,-0.014,105.0,104.0,103.0,13.3,1505.2,348.5,-0.8,1.8,2471.59,13.29,0.018,139.4
2023-12-19T00:58:03,42.805,6.029,-0.013,-0.007,-0.01,105.0,106.0,104.0,13.3,1505.2,0.7,-0.8,1.8,2471.568,13.29,0.014,241.7
2023-12-19T01:04:03,42.805,6.029,0.009,0.015,-0.042,108.0,106.0,105.0,13.4,1505.2,357.4,-0.8,1.8,2471.603,13.29,0.017,31.0
2023-12-19T01:07:03,42.805,6.029,-0.017,0.02,-0.021,107.0,105.0,103.0,13.4,1505.2,345.0,-0.7,1.8,2471.618,13.29,0.026,319.6
2023-12-19T01:10:03,42.805,6.029,-0.019,0.005,-0.015,106.0,105.0,104.0,13.3,1505.2,0.8,-0.8,1.8,2471.639,13.29,0.019,284.7
2023-12-19T01:13:03,42.805,6.029,-0.003,0.003,0.008,105.0,106.0,103.0,13.4,1505.2,346.8,-0.8,1.8,2471.593,13.29,0.004,315.0
2023-12-19T01:16:03,42.805,6.029,0.0,0.0,-0.028,108.0,107.0,103.0,13.3,1505.2,355.6,-0.8,1.8,2471.583,13.29,0.0,0.0
2023-12-19T01:19:03,42.805,6.029,0.017,0.009,-0.037,106.0,106.0,103.0,13.3,1505.2,354.6,-0.7,1.8,2471.577,13.29,0.019,62.1
2023-12-19T01:22:03,42.805,6.029,-0.012,0.011,-0.03,106.0,106.0,103.0,13.4,1505.2,353.8,-0.7,1.8,2471.595,13.29,0.016,312.5
2023-12-19T01:25:03,42.805,6.029,-0.013,0.01,0.005,106.0,106.0,103.0,13.3,1505.2,353.2,-0.8,1.8,2471.595,13.29,0.016,307.6
2023-12-19T01:28:03,42.805,6.029,0.011,0.012,-0.055,106.0,106.0,103.0,13.3,1505.2,354.8,-0.7,1.8,2471.573,13.29,0.016,42.5
2023-12-19T01:31:03,42.805,6.029,-0.028,0.013,-0.032,106.0,107.0,103.0,13.3,1505.2,353.9,-0.8,1.9,2471.54,13.29,0.03,294.9
2023-12-19T01:34:03,42.805,6.029,-0.007,0.012,-0.016,106.0,106.0,103.0,13.4,1505.2,338.3,-0.8,1.8,2471.562,13.29,0.013,329.7
2023-12-19T01:37:03,42.805,6.029,0.008,-0.015,0.001,107.0,106.0,103.0,13.4,1505.2,346.8,-0.7,1.8,2471.568,13.29,0.017,151.9
2023-12-19T01:40:03,42.805,6.029,-0.002,0.009,-0.051,106.0,106.0,102.0,13.3,1505.2,358.4,-0.8,1.8,2471.549,13.29,0.009,347.5
2023-12-19T01:43:03,42.805,6.029,0.019,-0.007,-0.015,107.0,105.0,103.0,13.4,1505.2,357.4,-0.8,1.8,2471.564,13.29,0.02,110.2
2023-12-19T01:46:03,42.805,6.029,-0.003,0.027,0.005,107.0,105.0,104.0,13.4,1505.2,348.6,-0.8,1.8,2471.566,13.29,0.027,353.7
2023-12-19T01:49:03,42.805,6.029,0.0,0.016,0.002,106.0,106.0,102.0,13.4,1505.2,4.0,-0.7,1.8,2471.584,13.29,0.016,0.0
2023-12-19T01:52:03,42.805,6.029,-0.025,0.011,-0.025,106.0,105.0,104.0,13.4,1505.2,344.7,-0.7,1.8,2471.564,13.29,0.027,293.7
2023-12-19T01:55:03,42.805,6.029,0.001,0.014,-0.045,106.0,106.0,103.0,13.4,1505.2,351.6,-0.8,1.8,2471.55,13.29,0.014,4.1
2023-12-19T01:58:03,42.805,6.029,0.009,0.012,-0.009,107.0,106.0,103.0,13.4,1505.2,357.6,-0.7,1.8,2471.552,13.29,0.015,36.9
2023-12-19T02:04:03,42.805,6.029,-0.018,0.014,-0.003,107.0,106.0,103.0,13.4,1505.2,348.5,-0.8,1.8,2471.602,13.29,0.022,307.9
2023-12-19T02:07:03,42.805,6.029,-0.002,0.0,-0.012,107.0,105.0,103.0,13.3,1505.2,0.7,-0.7,1.8,2471.585,13.29,0.002,270.0
2023-12-19T02:10:03,42.805,6.029,0.006,0.021,-0.029,107.0,106.0,104.0,13.3,1505.2,347.6,-0.8,1.8,2471.578,13.29,0.021,15.9
2023-12-19T02:13:03,42.805,6.029,-0.015,0.003,0.0,107.0,105.0,105.0,13.3,1505.2,348.3,-0.8,1.8,2471.543,13.29,0.015,281.3
2023-12-19T02:16:03,42.805,6.029,-0.012,0.012,-0.007,106.0,106.0,103.0,13.4,1505.2,341.0,-0.8,1.8,2471.606,13.29,0.016,315.0
2023-12-19T02:19:03,42.805,6.029,0.007,0.011,-0.021,106.0,106.0,104.0,13.4,1505.2,350.4,-0.8,1.8,2471.509,13.29,0.013,32.5
2023-12-19T02:22:03,42.805,6.029,-0.011,0.029,-0.028,105.0,106.0,104.0,13.4,1505.2,0.0,-0.7,1.8,2471.596,13.29,0.031,339.2
2023-12-19T02:25:03,42.805,6.029,-0.014,0.01,-0.018,106.0,105.0,103.0,13.4,1505.2,341.0,-0.8,1.8,2471.549,13.29,0.017,305.5
2023-12-19T02:28:03,42.805,6.029,0.0,0.035,-0.012,106.0,107.0,103.0,13.4,1505.2,355.7,-0.8,1.8,2471.568,13.29,0.035,0.0
2023-12-19T02:31:03,42.805,6.029,-0.001,-0.006,-0.019,107.0,106.0,103.0,13.4,1505.2,0.8,-0.7,1.8,2471.52,13.29,0.006,189.5
2023-12-19T02:34:03,42.805,6.029,-0.023,0.016,-0.046,106.0,105.0,102.0,13.4,1505.2,344.3,-0.8,1.8,2471.577,13.29,0.028,304.8
2023-12-19T02:37:03,42.805,6.029,-0.028,0.028,-0.019,106.0,107.0,102.0,13.3,1505.2,355.3,-0.8,1.8,2471.539,13.29,0.039,315.0
2023-12-19T02:40:03,42.805,6.029,0.012,0.025,-0.014,106.0,105.0,103.0,13.4,1505.2,2.3,-0.8,1.8,2471.525,13.29,0.027,25.6
2023-12-19T02:43:03,42.805,6.029,-0.004,0.022,-0.011,105.0,107.0,103.0,13.4,1505.2,350.5,-0.7,1.8,2471.498,13.29,0.022,349.7
2023-12-19T02:46:03,42.805,6.029,-0.004,0.017,-0.028,107.0,106.0,104.0,13.3,1505.2,347.5,-0.7,1.8,2471.538,13.29,0.017,346.8
2023-12-19T02:49:03,42.805,6.029,-0.02,0.007,-0.004,107.0,106.0,105.0,13.3,1505.2,342.9,-0.8,1.8,2471.518,13.29,0.021,289.3
2023-12-19T02:52:03,42.805,6.029,-0.012,0.034,-0.018,107.0,105.0,104.0,13.4,1505.2,352.6,-0.8,1.8,2471.504,13.29,0.036,340.6
2023-12-19T02:55:03,42.805,6.029,-0.017,0.015,0.002,107.0,107.0,104.0,13.3,1505.2,0.8,-0.8,1.8,2471.526,13.29,0.022,311.4
2023-12-19T02:58:03,42.805,6.029,-0.003,0.025,-0.023,108.0,107.0,102.0,13.3,1505.2,355.4,-0.8,1.8,2471.504,13.29,0.025,353.2
2023-12-19T03:04:03,42.805,6.029,-0.011,0.001,-0.039,106.0,106.0,104.0,13.4,1505.2,356.0,-0.8,1.8,2471.571,13.29,0.011,275.2
2023-12-19T03:07:03,42.805,6.029,-0.007,0.018,-0.006,106.0,105.0,104.0,13.3,1505.2,347.7,-0.8,1.8,2471.551,13.29,0.019,338.8
2023-12-19T03:10:03,42.805,6.029,0.001,0.051,-0.03,106.0,106.0,104.0,13.4,1505.2,3.2,-0.8,1.8,2471.573,13.29,0.051,1.1
2023-12-19T03:13:03,42.805,6.029,-0.024,0.032,-0.059,106.0,106.0,104.0,13.3,1505.2,356.1,-0.7,1.9,2471.558,13.29,0.04,323.1
2023-12-19T03:16:03,42.805,6.029,-0.013,0.029,0.002,107.0,106.0,104.0,13.3,1505.2,358.3,-0.8,1.8,2471.566,13.29,0.031,335.9
2023-12-19T03:19:03,42.805,6.029,-0.004,0.019,-0.025,106.0,105.0,104.0,13.4,1505.2,351.2,-0.8,1.8,2471.508,13.29,0.019,348.1
2023-12-19T03:22:03,42.805,6.029,-0.011,0.024,-0.036,107.0,106.0,103.0,13.4,1505.2,0.8,-0.8,1.8,2471.517,13.29,0.026,335.4
2023-12-19T03:25:03,42.805,6.029,-0.026,0.023,-0.019,108.0,105.0,105.0,13.3,1505.2,352.2,-0.7,1.8,2471.486,13.29,0.034,311.5
2023-12-19T03:28:03,42.805,6.029,0.0,0.015,0.0,105.0,106.0,105.0,13.3,1505.2,353.9,-0.8,1.8,2471.51,13.29,0.015,0.0
2023-12-19T03:31:03,42.805,6.029,-0.017,0.022,-0.007,107.0,107.0,104.0,13.4,1505.2,345.7,-0.7,1.8,2471.546,13.29,0.027,322.3
2023-12-19T03:34:03,42.805,6.029,0.0,0.039,-0.024,109.0,106.0,103.0,13.4,1505.2,347.5,-0.8,1.8,2471.504,13.29,0.039,0.0
2023-12-19T03:37:03,42.805,6.029,-0.006,0.012,-0.02,107.0,107.0,104.0,13.3,1505.2,2.5,-0.7,1.8,2471.499,13.29,0.013,333.4
2023-12-19T03:40:03,42.805,6.029,-0.006,0.026,0.012,106.0,106.0,105.0,13.4,1505.2,348.8,-0.8,1.8,2471.534,13.29,0.026,347.0
2023-12-19T03:43:03,42.805,6.029,-0.008,0.019,-0.008,107.0,107.0,103.0,13.4,1505.2,349.1,-0.7,1.8,2471.484,13.29,0.02,337.2
2023-12-19T03:46:03,42.805,6.029,-0.012,0.046,-0.045,106.0,106.0,104.0,13.3,1505.2,358.2,-0.8,1.8,2471.544,13.29,0.047,345.4
2023-12-19T03:49:03,42.805,6.029,-0.008,0.043,0.02,106.0,106.0,103.0,13.4,1505.2,338.9,-0.7,1.8,2471.486,13.29,0.043,349.5
2023-12-19T03:52:03,42.805,6.029,-0.017,0.027,0.001,106.0,106.0,104.0,13.3,1505.2,345.5,-0.8,1.8,2471.519,13.29,0.031,327.8
2023-12-19T03:55:03,42.805,6.029,-0.007,0.024,-0.018,107.0,107.0,104.0,13.3,1505.2,338.4,-0.7,1.8,2471.536,13.29,0.025,343.7
2023-12-19T03:58:03,42.805,6.029,-0.019,0.023,-0.005,107.0,106.0,104.0,13.4,1505.2,349.9,-0.8,1.8,2471.515,13.29,0.029,320.4
2023-12-19T04:04:03,42.805,6.029,-0.015,0.029,-0.032,106.0,106.0,104.0,13.3,1505.2,0.0,-0.8,1.8,2471.559,13.29,0.032,332.6
2023-12-19T04:07:03,42.805,6.029,-0.019,0.016,-0.001,107.0,107.0,105.0,13.4,1505.2,341.3,-0.7,1.8,2471.522,13.29,0.024,310.1
2023-12-19T04:10:03,42.805,6.029,-0.009,0.023,-0.025,106.0,106.0,104.0,13.4,1505.2,346.1,-0.8,1.8,2471.573,13.29,0.024,338.6
2023-12-19T04:13:03,42.805,6.029,0.009,0.022,-0.005,108.0,106.0,104.0,13.3,1505.2,358.4,-0.8,1.8,2471.513,13.29,0.023,22.2
2023-12-19T04:16:03,42.805,6.029,-0.009,0.023,-0.006,109.0,107.0,104.0,13.3,1505.2,354.9,-0.8,1.8,2471.523,13.29,0.024,338.6
2023-12-19T04:19:03,42.805,6.029,-0.009,0.021,-0.027,107.0,107.0,104.0,13.4,1505.2,353.7,-0.8,1.8,2471.507,13.29,0.022,336.8
2023-12-19T04:22:03,42.805,6.029,-0.002,0.019,-0.019,106.0,106.0,104.0,13.3,1505.2,345.0,-0.8,1.8,2471.471,13.29,0.019,354.0
2023-12-19T04:25:03,42.805,6.029,-0.002,0.018,-0.027,107.0,107.0,103.0,13.3,1505.2,345.9,-0.8,1.8,2471.523,13.29,0.018,353.7
2023-12-19T04:28:03,42.805,6.029,0.028,0.015,0.011,108.0,106.0,104.0,13.3,1505.2,3.3,-0.8,1.8,2471.517,13.29,0.031,61.8
2023-12-19T04:31:03,42.805,6.029,0.002,0.038,-0.028,108.0,106.0,103.0,13.4,1505.2,351.6,-0.8,1.8,2471.521,13.29,0.038,3.0
2023-12-19T04:34:03,42.805,6.029,-0.015,0.029,-0.023,109.0,107.0,103.0,13.4,1505.2,354.5,-0.8,1.8,2471.494,13.29,0.032,332.6
2023-12-19T04:37:03,42.805,6.029,-0.013,0.038,-0.009,107.0,107.0,104.0,13.4,1505.2,354.5,-0.8,1.8,2471.518,13.29,0.04,341.1
2023-12-19T04:40:03,42.805,6.029,-0.022,0.041,-0.021,107.0,107.0,104.0,13.4,1505.2,356.5,-0.7,1.8,2471.509,13.29,0.046,331.8
2023-12-19T04:43:03,42.805,6.029,-0.002,0.026,-0.027,107.0,107.0,104.0,13.4,1505.2,356.5,-0.7,1.8,2471.48,13.29,0.026,355.6
2023-12-19T04:46:03,42.805,6.029,-0.001,0.016,-0.033,108.0,107.0,103.0,13.4,1505.2,352.6,-0.7,1.8,2471.489,13.29,0.016,356.4
2023-12-19T04:49:03,42.805,6.029,0.004,-0.003,-0.012,107.0,106.0,104.0,13.4,1505.2,347.4,-0.8,1.8,2471.482,13.29,0.005,126.9
2023-12-19T04:52:03,42.805,6.029,-0.01,0.021,-0.032,109.0,106.0,104.0,13.4,1505.2,2.4,-0.8,1.8,2471.485,13.29,0.023,334.5
2023-12-19T04:55:03,42.805,6.029,-0.006,0.03,0.03,105.0,106.0,105.0,13.4,1505.2,342.8,-0.7,1.8,2471.495,13.29,0.03,348.7
2023-12-19T04:58:03,42.805,6.029,-0.025,0.025,-0.011,106.0,106.0,104.0,13.4,1505.2,345.1,-0.8,1.8,2471.499,13.29,0.035,315.0
2023-12-19T05:04:03,42.805,6.029,-0.001,0.004,-0.022,106.0,106.0,105.0,13.4,1505.2,340.0,-0.8,1.8,2471.494,13.29,0.004,346.0
2023-12-19T05:07:03,42.805,6.029,-0.008,0.032,-0.017,105.0,106.0,104.0,13.3,1505.2,348.5,-0.8,1.8,2471.549,13.29,0.032,346.0
2023-12-19T05:10:03,42.805,6.029,0.003,0.017,-0.017,108.0,105.0,104.0,13.4,1505.2,0.0,-0.8,1.8,2471.502,13.29,0.017,10.0
2023-12-19T05:13:03,42.805,6.029,0.005,0.03,0.0,107.0,106.0,103.0,13.4,1505.2,357.7,-0.7,1.8,2471.529,13.29,0.03,9.5
2023-12-19T05:16:04,42.805,6.029,-0.012,0.014,-0.032,107.0,106.0,103.0,13.4,1505.2,340.6,-0.8,1.8,2471.501,13.29,0.018,319.4
2023-12-19T05:19:03,42.805,6.029,0.019,0.006,-0.013,106.0,107.0,103.0,13.4,1505.2,355.7,-0.8,1.8,2471.513,13.29,0.019,72.5
2023-12-19T05:22:03,42.805,6.029,-0.021,-0.001,-0.044,105.0,107.0,105.0,13.3,1505.2,351.8,-0.7,1.8,2471.524,13.29,0.021,267.3
2023-12-19T05:25:03,42.805,6.029,0.001,0.007,-0.012,106.0,107.0,103.0,13.3,1505.2,352.6,-0.8,1.8,2471.503,13.29,0.007,8.1
2023-12-19T05:28:03,42.805,6.029,0.01,0.014,-0.01,106.0,106.0,103.0,13.4,1505.2,347.8,-0.7,1.8,2471.489,13.29,0.017,35.5
2023-12-19T05:31:03,42.805,6.029,0.006,0.022,-0.029,106.0,106.0,104.0,13.4,1505.2,348.0,-0.8,1.8,2471.472,13.29,0.022,15.3
2023-12-19T05:34:03,42.805,6.029,0.0,0.024,-0.015,107.0,106.0,103.0,13.4,1505.2,1.7,-0.8,1.8,2471.496,13.29,0.024,0.0
2023-12-19T05:37:03,42.805,6.029,0.007,0.029,-0.007,107.0,106.0,104.0,13.4,1505.2,342.0,-0.7,1.8,2471.478,13.29,0.029,13.6
2023-12-19T05:40:03,42.805,6.029,0.009,0.003,-0.029,108.0,107.0,104.0,13.4,1505.2,352.9,-0.7,1.8,2471.507,13.29,0.009,71.6
2023-12-19T05:43:03,42.805,6.029,-0.013,-0.003,-0.003,106.0,106.0,104.0,13.4,1505.2,349.8,-0.7,1.8,2471.513,13.29,0.013,257.0
2023-12-19T05:46:03,42.805,6.029,0.0,0.027,0.008,107.0,106.0,103.0,13.4,1505.2,344.3,-0.7,1.8,2471.473,13.29,0.026,0.0
2023-12-19T05:49:03,42.805,6.029,0.011,0.015,-0.012,107.0,107.0,104.0,13.4,1505.2,344.9,-0.7,1.8,2471.499,13.29,0.018,36.3
2023-12-19T05:52:03,42.805,6.029,0.014,0.0,0.019,105.0,106.0,104.0,13.4,1505.2,342.7,-0.8,1.8,2471.483,13.29,0.014,90.0
2023-12-19T05:55:03,42.805,6.029,-0.013,0.021,-0.023,107.0,106.0,104.0,13.3,1505.2,346.7,-0.8,1.8,2471.472,13.29,0.024,328.2
2023-12-19T05:58:03,42.805,6.029,0.006,0.009,-0.008,106.0,107.0,104.0,13.4,1505.2,349.4,-0.8,1.8,2471.473,13.29,0.01,33.7
2023-12-19T06:04:03,42.805,6.029,0.003,0.006,-0.05,107.0,106.0,103.0,13.4,1505.2,354.0,-0.8,1.8,2471.544,13.29,0.006,26.6
2023-12-19T06:07:03,42.805,6.029,0.006,0.034,0.016,107.0,106.0,104.0,13.3,1505.2,348.5,-0.8,1.8,2471.522,13.29,0.034,10.0
2023-12-19T06:10:03,42.805,6.029,0.009,0.023,-0.015,106.0,106.0,104.0,13.4,1505.2,353.2,-0.8,1.8,2471.549,13.29,0.024,21.4
2023-12-19T06:13:03,42.805,6.029,0.016,0.006,-0.018,107.0,106.0,104.0,13.4,1505.2,357.5,-0.8,1.8,2471.521,13.29,0.017,69.4
2023-12-19T06:16:03,42.805,6.029,0.003,-0.002,-0.01,105.0,108.0,103.0,13.3,1505.2,3.1,-0.7,1.8,2471.511,13.29,0.003,123.7
2023-12-19T06:19:03,42.805,6.029,-0.01,0.049,-0.02,107.0,106.0,103.0,13.4,1505.2,354.8,-0.7,1.8,2471.497,13.29,0.05,348.5
2023-12-19T06:22:03,42.805,6.029,-0.001,-0.001,0.001,106.0,106.0,103.0,13.4,1505.2,0.0,-0.8,1.8,2471.549,13.29,0.001,225.0
2023-12-19T06:25:03,42.805,6.029,0.011,0.004,-0.01,108.0,107.0,103.0,13.3,1505.2,2.4,-0.8,1.8,2471.516,13.29,0.011,70.0
2023-12-19T06:28:03,42.805,6.029,-0.004,0.018,-0.023,107.0,106.0,103.0,13.4,1505.2,338.6,-0.8,1.8,2471.477,13.29,0.018,347.5
2023-12-19T06:31:03,42.805,6.029,0.015,0.024,-0.009,107.0,107.0,103.0,13.3,1505.2,358.3,-0.8,1.8,2471.481,13.29,0.028,32.0
2023-12-19T06:34:03,42.805,6.029,-0.004,0.035,0.009,107.0,106.0,103.0,13.4,1505.2,353.9,-0.8,1.8,2471.523,13.29,0.035,353.5
2023-12-19T06:37:03,42.805,6.029,0.009,0.023,-0.007,106.0,107.0,103.0,13.4,1505.2,355.7,-0.7,1.8,2471.466,13.29,0.024,21.4
2023-12-19T06:40:03,42.805,6.029,-0.027,0.028,-0.023,106.0,105.0,103.0,13.4,1505.2,347.7,-0.7,1.8,2471.509,13.29,0.038,316.0
2023-12-19T06:43:03,42.805,6.029,0.0,0.017,0.0,107.0,106.0,103.0,13.4,1505.2,356.1,-0.8,1.8,2471.498,13.29,0.017,0.0
2023-12-19T06:46:03,42.805,6.029,0.003,0.012,-0.016,106.0,105.0,104.0,13.3,1505.2,349.0,-0.7,1.8,2471.497,13.29,0.012,14.0
2023-12-19T06:49:03,42.805,6.029,0.018,0.012,-0.028,106.0,106.0,104.0,13.3,1505.2,347.2,-0.8,1.8,2471.472,13.29,0.021,56.3
2023-12-19T06:52:03,42.805,6.029,0.006,0.011,-0.045,106.0,106.0,105.0,13.4,1505.2,4.0,-0.8,1.8,2471.482,13.29,0.012,28.6
2023-12-19T06:55:03,42.805,6.029,-0.007,0.02,-0.029,106.0,106.0,102.0,13.3,1505.2,346.6,-0.8,1.8,2471.475,13.29,0.021,340.7
2023-12-19T06:58:03,42.805,6.029,-0.005,0.027,-0.012,106.0,107.0,104.0,13.4,1505.2,342.9,-0.8,1.8,2471.503,13.29,0.027,349.5
2023-12-19T07:04:03,42.805,6.029,0.006,0.033,0.0,106.0,107.0,104.0,13.4,1505.2,345.0,-0.8,1.8,2471.543,13.29,0.033,10.3
2023-12-19T07:07:03,42.805,6.029,0.015,0.005,0.009,105.0,106.0,103.0,13.4,1505.2,355.3,-0.8,1.8,2471.536,13.29,0.015,71.6
2023-12-19T07:10:03,42.805,6.029,-0.005,0.011,-0.029,108.0,106.0,103.0,13.4,1505.2,346.9,-0.8,1.8,2471.497,13.29,0.012,335.6
2023-12-19T07:13:03,42.805,6.029,0.021,0.01,-0.026,107.0,106.0,104.0,13.4,1505.2,1.6,-0.8,1.8,2471.517,13.29,0.023,64.5
2023-12-19T07:16:03,42.805,6.029,-0.004,0.025,-0.024,107.0,106.0,104.0,13.3,1505.2,343.1,-0.7,1.8,2471.511,13.29,0.025,350.9
2023-12-19T07:19:03,42.805,6.029,0.006,0.019,-0.01,106.0,106.0,105.0,13.3,1505.2,347.6,-0.7,1.8,2471.528,13.29,0.019,17.5
2023-12-19T07:22:03,42.805,6.029,-0.009,0.02,-0.019,107.0,107.0,104.0,13.3,1505.2,352.3,-0.7,1.8,2471.554,13.29,0.021,335.8
2023-12-19T07:25:03,42.805,6.029,-0.003,-0.011,-0.027,106.0,106.0,104.0,13.4,1505.2,354.6,-0.8,1.8,2471.539,13.29,0.011,195.3
2023-12-19T07:28:03,42.805,6.029,0.005,0.037,0.013,106.0,106.0,105.0,13.4,1505.2,357.4,-0.8,1.8,2471.49,13.29,0.037,7.7
2023-12-19T07:31:03,42.805,6.029,0.002,0.019,-0.012,107.0,106.0,104.0,13.3,1505.2,0.8,-0.8,1.8,2471.527,13.29,0.019,6.0
2023-12-19T07:34:03,42.805,6.029,0.014,0.049,-0.009,107.0,106.0,104.0,13.3,1505.2,354.8,-0.8,1.8,2471.51,13.29,0.05,15.9
2023-12-19T07:37:03,42.805,6.029,0.0,0.003,-0.005,106.0,106.0,104.0,13.3,1505.2,357.5,-0.8,1.8,2471.474,13.29,0.003,0.0
2023-12-19T07:40:03,42.805,6.029,0.006,0.027,-0.018,106.0,105.0,104.0,13.4,1505.2,346.5,-0.8,1.8,2471.489,13.29,0.027,12.5
2023-12-19T07:43:03,42.805,6.029,0.012,0.018,-0.02,106.0,107.0,103.0,13.4,1505.2,354.8,-0.8,1.8,2471.545,13.29,0.021,33.7
2023-12-19T07:46:03,42.805,6.029,0.0,0.01,-0.032,107.0,107.0,103.0,13.4,1505.2,346.8,-0.8,1.8,2471.507,13.29,0.01,0.0
2023-12-19T07:49:03,42.805,6.029,0.013,0.024,0.011,107.0,105.0,103.0,13.4,1505.2,355.7,-0.8,1.8,2471.548,13.29,0.027,28.4
2023-12-19T07:52:03,42.805,6.029,0.006,0.019,-0.002,107.0,106.0,103.0,13.4,1505.2,3.2,-0.8,1.8,2471.525,13.29,0.019,17.5
2023-12-19T07:55:03,42.805,6.029,-0.005,0.0,-0.001,105.0,105.0,104.0,13.4,1505.2,338.9,-0.8,1.8,2471.534,13.29,0.005,270.0
2023-12-19T07:58:03,42.805,6.029,0.014,0.01,-0.021,108.0,106.0,103.0,13.4,1505.2,356.8,-0.8,1.8,2471.548,13.29,0.017,54.5
2023-12-19T08:04:03,42.805,6.029,0.019,0.02,-0.023,106.0,105.0,103.0,13.3,1505.2,348.8,-0.8,1.8,2471.589,13.29,0.027,43.5
2023-12-19T08:07:03,42.805,6.029,0.014,0.018,-0.012,105.0,106.0,103.0,13.4,1505.2,357.6,-0.8,1.8,2471.599,13.29,0.022,37.9
2023-12-19T08:10:03,42.805,6.029,0.032,0.035,0.008,106.0,107.0,103.0,13.4,1505.2,351.1,-0.8,1.8,2471.572,13.29,0.047,42.4
2023-12-19T08:13:03,42.805,6.029,0.009,0.009,0.007,106.0,106.0,104.0,13.3,1505.2,355.7,-0.8,1.8,2471.535,13.29,0.012,45.0
2023-12-19T08:16:03,42.805,6.029,0.007,0.034,0.001,106.0,105.0,103.0,13.4,1505.2,2.4,-0.8,1.8,2471.569,13.29,0.034,11.6
2023-12-19T08:19:03,42.805,6.029,0.002,0.026,-0.019,105.0,105.0,103.0,13.4,1505.2,3.2,-0.8,1.8,2471.557,13.29,0.026,4.4
2023-12-19T08:22:03,42.805,6.029,0.021,0.008,-0.016,106.0,105.0,103.0,13.4,1505.2,339.1,-0.8,1.8,2471.547,13.29,0.022,69.1
2023-12-19T08:25:03,42.805,6.029,0.014,-0.004,-0.021,107.0,106.0,104.0,13.4,1505.2,348.2,-0.7,1.8,2471.551,13.29,0.014,105.9
2023-12-19T08:28:03,42.805,6.029,0.018,0.0,-0.01,106.0,107.0,103.0,13.4,1505.2,350.2,-0.8,1.8,2471.554,13.29,0.018,90.0
2023-12-19T08:31:03,42.805,6.029,0.013,0.024,-0.014,105.0,106.0,102.0,13.4,1505.2,356.1,-0.8,1.8,2471.546,13.29,0.027,28.4
2023-12-19T08:34:03,42.805,6.029,0.022,0.025,-0.004,107.0,105.0,103.0,13.4,1505.2,351.3,-0.8,1.8,2471.564,13.29,0.033,41.3
2023-12-19T08:37:03,42.805,6.029,0.026,0.038,0.003,107.0,106.0,104.0,13.4,1505.2,348.5,-0.8,1.8,2471.574,13.29,0.046,34.4
2023-12-19T08:40:03,42.805,6.029,0.006,0.024,-0.006,106.0,105.0,104.0,13.4,1505.2,354.9,-0.8,1.8,2471.59,13.29,0.024,14.0
2023-12-19T08:43:03,42.805,6.029,0.0,0.022,-0.005,106.0,105.0,103.0,13.3,1505.2,348.6,-0.7,1.8,2471.572,13.29,0.022,0.0
2023-12-19T08:46:03,42.805,6.029,0.028,0.003,-0.023,107.0,106.0,104.0,13.4,1505.2,353.8,-0.8,1.8,2471.578,13.29,0.028,83.9
2023-12-19T08:49:03,42.805,6.029,0.023,0.008,-0.017,106.0,106.0,104.0,13.4,1505.2,344.9,-0.8,1.8,2471.588,13.29,0.024,70.8
2023-12-19T08:52:03,42.805,6.029,-0.004,0.027,-0.008,106.0,106.0,103.0,13.4,1505.2,1.6,-0.8,1.8,2471.563,13.29,0.027,351.6
2023-12-19T08:55:03,42.805,6.029,0.006,0.015,-0.008,106.0,106.0,103.0,13.4,1505.2,341.3,-0.8,1.8,2471.573,13.29,0.016,21.8
2023-12-19T08:58:03,42.805,6.029,-0.008,0.034,-0.051,106.0,105.0,103.0,13.4,1505.2,356.7,-0.8,1.8,2471.566,13.29,0.034,346.8
2023-12-19T09:04:03,42.805,6.029,0.027,0.034,-0.001,105.0,106.0,103.0,13.4,1505.2,0.8,-0.8,1.8,2471.613,13.29,0.043,38.5
2023-12-19T09:07:03,42.805,6.029,0.008,0.017,0.0,107.0,105.0,103.0,13.4,1505.2,341.0,-0.8,1.8,2471.591,13.29,0.018,25.2
2023-12-19T09:10:03,42.805,6.029,0.016,0.006,-0.014,106.0,106.0,103.0,13.3,1505.2,348.0,-0.8,1.8,2471.573,13.29,0.017,69.4
2023-12-19T09:13:03,42.805,6.029,0.018,-0.004,-0.02,106.0,106.0,102.0,13.3,1505.2,0.7,-0.8,1.8,2471.623,13.29,0.018,102.5
2023-12-19T09:16:03,42.805,6.029,0.0,0.014,-0.006,106.0,107.0,103.0,13.4,1505.2,345.2,-0.8,1.8,2471.609,13.29,0.014,0.0
2023-12-19T09:19:03,42.805,6.029,0.034,-0.005,-0.007,105.0,106.0,103.0,13.4,1505.2,354.5,-0.8,1.8,2471.639,13.29,0.034,98.4
2023-12-19T09:22:03,42.805,6.029,0.022,0.019,0.015,106.0,106.0,103.0,13.4,1505.2,355.6,-0.8,1.8,2471.64,13.29,0.029,49.2
2023-12-19T09:25:03,42.805,6.029,0.034,0.023,0.005,105.0,106.0,102.0,13.4,1505.2,346.3,-0.8,1.8,2471.644,13.29,0.041,55.9
2023-12-19T09:28:03,42.805,6.029,0.022,0.006,0.009,105.0,106.0,104.0,13.4,1505.2,356.1,-0.8,1.8,2471.606,13.29,0.022,74.7
2023-12-19T09:31:03,42.805,6.029,0.006,0.028,-0.007,105.0,106.0,103.0,13.3,1505.2,348.6,-0.8,1.8,2471.587,13.29,0.028,12.1
2023-12-19T09:34:03,42.805,6.029,0.021,0.005,-0.005,106.0,104.0,104.0,13.3,1505.2,344.3,-0.8,1.8,2471.6,13.29,0.021,76.6
2023-12-19T09:37:03,42.805,6.029,0.016,0.025,-0.007,106.0,106.0,102.0,13.4,1505.2,3.1,-0.8,1.8,2471.601,13.29,0.029,32.6
2023-12-19T09:40:03,42.805,6.029,0.003,0.033,0.006,105.0,107.0,103.0,13.3,1505.2,350.2,-0.7,1.8,2471.597,13.29,0.033,5.2
2023-12-19T09:43:03,42.805,6.029,0.042,-0.021,-0.001,106.0,106.0,102.0,13.3,1505.2,352.7,-0.8,1.8,2471.591,13.29,0.046,116.6
2023-12-19T09:46:03,42.805,6.029,0.016,-0.004,-0.035,105.0,106.0,103.0,13.3,1505.2,354.5,-0.8,1.8,2471.619,13.29,0.016,104.0
2023-12-19T09:49:03,42.805,6.029,0.024,0.012,-0.027,106.0,105.0,102.0,13.4,1505.2,352.9,-0.8,1.8,2471.643,13.29,0.026,63.4
2023-12-19T09:52:03,42.805,6.029,0.005,0.008,0.008,105.0,105.0,103.0,13.3,1505.2,347.5,-0.8,1.8,2471.602,13.29,0.009,32.0
2023-12-19T09:55:03,42.805,6.029,0.018,0.036,-0.025,107.0,106.0,102.0,13.4,1505.2,344.9,-0.7,1.8,2471.635,13.29,0.04,26.6
2023-12-19T09:58:03,42.805,6.029,0.039,0.025,-0.018,107.0,106.0,103.0,13.3,1505.2,348.6,-0.8,1.8,2471.599,13.29,0.046,57.3
2023-12-19T10:04:03,42.805,6.029,0.012,0.009,-0.027,105.0,106.0,103.0,13.4,1505.2,358.2,-0.8,1.8,2471.663,13.29,0.015,53.1